Volkel, Netherlands

11:01 PM CEST on October 17, 2017 (GMT +0200)
Volkel Air Base

Weather History for EHVK - April, 2013

Change the Weather History Date:

Saturday, April 13, 2013

  Actual Average Record
Temperature  
Mean Temperature 53 °F -  
Max Temperature 60 °F 59 °F 73 °F (2007)
Min Temperature 46 °F 42 °F 28 °F (1997)
Degree Days  
Heating Degree Days 12    
Growing Degree Days 3 (Base 50)    
Moisture  
Dew Point 43 °F    
Average Humidity 76    
Maximum Humidity 93    
Minimum Humidity 45    
Precipitation  
Precipitation 0.00 in - - ()
Sea Level Pressure  
Sea Level Pressure 29.94 in    
Wind  
Wind Speed 12 mph ()    
Max Wind Speed 20 mph    
Max Gust Speed -    
Visibility 6.0 miles    
Events Rain    
Averages and records for this station are not official NWS values.
T = Trace of Precipitation, MM = Missing Value Source: Averaged Metar Reports

Daily Weather History Graph

Daily Weather History Graph

Search for Another Location

Airport or City:

Trip Planner

Search our weather history database for the weather conditions in past years. The results will help you decide how hot, cold, wet, or windy it might be!

Date:

Astronomy

Apr. 13, 2013 Rise Set
Actual Time 6:45 AM CEST 8:31 PM CEST
Civil Twilight 6:10 AM CEST 9:06 PM CEST
Nautical Twilight 5:26 AM CEST 9:50 PM CEST
Astronomical Twilight 4:38 AM CEST 10:39 PM CEST
Moon 8:07 AM CEST (4/13) No Moon Set
Length of Visible Light 14h 56m
Length of Day
13h 45m
Waxing Crescent, 9% of the Moon is Illuminated
Apr 13
Waxing Crescent
Apr 18
First Quarter
Apr 25
Full
May 2
Last Quarter
May 10
New

Hourly Weather History & Observations

Time (CEST) Temp. Windchill Dew Point Humidity Pressure Visibility Wind Dir Wind Speed Gust Speed Precip Events Conditions
12:12 AM 50.0 °F - 42.8 °F 76% 29.65 in 6.2 mi SW 17.3 mph - N/A   Overcast
12:16 AM 50.0 °F - 42.8 °F 76% 29.65 in 6.2 mi SW 18.4 mph - N/A   Overcast
12:25 AM 50.0 °F - 42.8 °F 76% 29.65 in 6.2 mi WSW 19.6 mph - N/A Rain Light Rain
12:31 AM 48.2 °F - 42.8 °F 82% 29.65 in 4.3 mi WSW 16.1 mph - N/A Rain Rain
12:44 AM 48.2 °F - 44.6 °F 87% 29.65 in 6.2 mi SW 17.3 mph - N/A   Overcast
12:55 AM 48.2 °F - 44.6 °F 87% 29.68 in 6.2 mi SW 17.3 mph - N/A   Overcast
1:25 AM 48.2 °F - 44.6 °F 87% 29.68 in 6.2 mi WSW 17.3 mph - N/A   Overcast
1:40 AM 48.2 °F - 44.6 °F 87% 29.71 in 6.2 mi WSW 13.8 mph - N/A   Overcast
1:47 AM 48.2 °F - 44.6 °F 87% 29.71 in 6.2 mi West 13.8 mph - N/A   Overcast
1:55 AM 48.2 °F - 42.8 °F 82% 29.71 in 6.2 mi West 11.5 mph - N/A   Overcast
2:25 AM 46.4 °F 41.1 °F 42.8 °F 87% 29.74 in 6.2 mi West 11.5 mph - N/A   Mostly Cloudy
2:39 AM 46.4 °F 40.7 °F 42.8 °F 87% 29.74 in 6.2 mi West 12.7 mph - N/A   Partly Cloudy
2:55 AM 46.4 °F 41.1 °F 42.8 °F 87% 29.74 in 6.2 mi West 11.5 mph - N/A   Mostly Cloudy
3:06 AM 46.4 °F 41.9 °F 42.8 °F 87% 29.74 in 6.2 mi West 9.2 mph - N/A   Mostly Cloudy
3:11 AM 46.4 °F 41.9 °F 42.8 °F 87% 29.74 in 6.2 mi West 9.2 mph - N/A   Mostly Cloudy
3:15 AM 46.4 °F 41.5 °F 42.8 °F 87% 29.77 in 6.2 mi West 10.4 mph - N/A   Overcast
3:16 AM 46.4 °F 41.5 °F 42.8 °F 87% 29.77 in 6.2 mi West 10.4 mph - N/A   Overcast
3:25 AM 46.4 °F 41.9 °F 42.8 °F 87% 29.77 in 6.2 mi West 9.2 mph - N/A   Overcast
3:55 AM 46.4 °F 42.9 °F 42.8 °F 87% 29.77 in 6.2 mi West 6.9 mph - N/A   Overcast
4:25 AM 46.4 °F 42.9 °F 44.6 °F 93% 29.80 in 5.6 mi West 6.9 mph - N/A   Overcast
4:55 AM 48.2 °F - 44.6 °F 87% 29.80 in 5.0 mi West 11.5 mph - N/A   Overcast
5:13 AM 48.2 °F - 44.6 °F 87% 29.80 in 4.3 mi WSW 11.5 mph - N/A   Overcast
5:25 AM 48.2 °F - 44.6 °F 87% 29.80 in 5.0 mi WSW 11.5 mph - N/A   Overcast
5:30 AM 48.2 °F - 44.6 °F 87% 29.80 in 4.3 mi West 10.4 mph - N/A   Overcast
5:32 AM 48.2 °F - 44.6 °F 87% 29.80 in 5.0 mi WSW 10.4 mph - N/A   Overcast
5:39 AM 48.2 °F - 44.6 °F 87% 29.83 in 4.3 mi West 10.4 mph - N/A   Overcast
5:55 AM 48.2 °F - 44.6 °F 87% 29.83 in 5.0 mi West 10.4 mph - N/A   Overcast
6:25 AM 48.2 °F - 44.6 °F 87% 29.83 in 4.3 mi West 12.7 mph - N/A   Overcast
9:29 AM 50.0 °F - 44.6 °F 82% 29.95 in 5.6 mi WSW 9.2 mph - N/A   Mostly Cloudy
9:34 AM 50.0 °F - 44.6 °F 82% 29.95 in 5.6 mi WSW 10.4 mph - N/A   Mostly Cloudy
9:55 AM 50.0 °F - 44.6 °F 82% 29.95 in 6.2 mi WSW 12.7 mph - N/A   Overcast
10:25 AM 50.0 °F - 42.8 °F 76% 29.95 in 6.2 mi SW 15.0 mph - N/A   Overcast
10:30 AM 50.0 °F - 44.6 °F 82% 29.95 in 6.2 mi WSW 15.0 mph - N/A   Overcast
10:34 AM 50.0 °F - 42.8 °F 76% 29.98 in 6.2 mi WSW 15.0 mph - N/A   Overcast
10:44 AM 50.0 °F - 42.8 °F 76% 29.98 in 6.2 mi WSW 15.0 mph - N/A   Overcast
10:55 AM 50.0 °F - 42.8 °F 76% 29.98 in 6.2 mi WSW 13.8 mph - N/A   Overcast
11:06 AM 50.0 °F - 44.6 °F 82% 29.98 in 6.2 mi SW 15.0 mph - N/A   Overcast
11:10 AM 50.0 °F - 44.6 °F 82% 29.98 in 6.2 mi SW 15.0 mph - N/A   Overcast
11:25 AM 50.0 °F - 42.8 °F 76% 30.01 in 6.2 mi SW 16.1 mph - N/A   Overcast
11:32 AM 51.8 °F - 42.8 °F 71% 30.01 in 6.2 mi SW 15.0 mph - N/A   Overcast
11:38 AM 51.8 °F - 44.6 °F 76% 30.01 in 6.2 mi SW 13.8 mph - N/A   Overcast
11:48 AM 51.8 °F - 42.8 °F 71% 30.01 in 6.2 mi SW 13.8 mph - N/A   Overcast
11:55 AM 51.8 °F - 44.6 °F 76% 30.01 in 6.2 mi SW 12.7 mph - N/A   Overcast
11:59 AM 51.8 °F - 42.8 °F 71% 30.01 in 6.2 mi SW 12.7 mph - N/A   Overcast
12:05 PM 51.8 °F - 42.8 °F 71% 30.01 in 6.2 mi SW 15.0 mph - N/A   Overcast
12:11 PM 51.8 °F - 42.8 °F 71% 30.01 in 6.2 mi SW 16.1 mph - N/A   Overcast
12:15 PM 51.8 °F - 42.8 °F 71% 30.01 in 6.2 mi SW 16.1 mph - N/A   Overcast
12:25 PM 51.8 °F - 42.8 °F 71% 30.01 in 6.2 mi SW 16.1 mph - N/A   Overcast
12:37 PM 53.6 °F - 42.8 °F 67% 30.01 in 6.2 mi WSW 11.5 mph - N/A   Overcast
12:43 PM 53.6 °F - 42.8 °F 67% 30.01 in 6.2 mi SW 11.5 mph - N/A   Mostly Cloudy
12:48 PM 53.6 °F - 42.8 °F 67% 30.01 in 6.2 mi WSW 10.4 mph - N/A   Overcast
12:55 PM 53.6 °F - 42.8 °F 67% 30.01 in 6.2 mi WSW 10.4 mph - N/A   Overcast
1:25 PM 53.6 °F - 44.6 °F 72% 30.04 in 6.2 mi SW 6.9 mph - N/A   Mostly Cloudy
1:39 PM 53.6 °F - 42.8 °F 67% 30.04 in 3.7 mi SW 10.4 mph - N/A   Haze
1:40 PM 51.8 °F - 44.6 °F 76% 30.04 in 6.2 mi SW 13.8 mph - N/A Rain Light Rain
1:55 PM 53.6 °F - 44.6 °F 72% 30.04 in 6.2 mi WSW 11.5 mph - N/A   Mostly Cloudy
2:25 PM 55.4 °F - 42.8 °F 63% 30.04 in 6.2 mi SW 12.7 mph - N/A   Mostly Cloudy
2:55 PM 57.2 °F - 41.0 °F 55% 30.04 in 6.2 mi WSW 13.8 mph - N/A   Mostly Cloudy
3:25 PM 57.2 °F - 39.2 °F 51% 30.04 in 6.2 mi SW 12.7 mph - N/A   Partly Cloudy
3:55 PM 59.0 °F - 39.2 °F 48% 30.04 in 6.2 mi SW 13.8 mph - N/A   Scattered Clouds
4:25 PM 60.8 °F - 39.2 °F 45% 30.04 in 6.2 mi SW 13.8 mph - N/A   Partly Cloudy
4:55 PM 59.0 °F - 37.4 °F 45% 30.04 in 6.2 mi SW 16.1 mph - N/A   Mostly Cloudy
5:25 PM 59.0 °F - 37.4 °F 45% 30.04 in 6.2 mi SW 13.8 mph - N/A   Partly Cloudy
5:55 PM 59.0 °F - 37.4 °F 45% 30.04 in 6.2 mi SW 16.1 mph - N/A   Scattered Clouds
6:25 PM 59.0 °F - 37.4 °F 45% 30.04 in 6.2 mi SW 12.7 mph - N/A   Partly Cloudy
6:55 PM 57.2 °F - 37.4 °F 48% 30.04 in 6.2 mi SSW 10.4 mph - N/A   Mostly Cloudy
7:25 PM 57.2 °F - 37.4 °F 48% 30.04 in 6.2 mi SSW 8.1 mph - N/A   Overcast
7:55 PM 55.4 °F - 39.2 °F 54% 30.06 in 6.2 mi South 6.9 mph - N/A   Overcast
8:25 PM 55.4 °F - 39.2 °F 54% 30.06 in 6.2 mi SSW 9.2 mph - N/A Rain Light Rain
8:55 PM 53.6 °F - 42.8 °F 67% 30.06 in 6.2 mi SSW 9.2 mph - N/A   Overcast
9:25 PM 55.4 °F - 42.8 °F 63% 30.06 in 6.2 mi SSW 9.2 mph - N/A   Overcast
9:55 PM 53.6 °F - 44.6 °F 72% 30.09 in 6.2 mi SSW 12.7 mph - N/A   Drizzle
10:25 PM 51.8 °F - 46.4 °F 82% 30.09 in 6.2 mi SSW 10.4 mph - N/A Rain Light Rain
10:47 PM 51.8 °F - 48.2 °F 88% 30.09 in 6.2 mi South 6.9 mph - N/A   Heavy Drizzle
10:51 PM 51.8 °F - 48.2 °F 88% 30.09 in 6.2 mi South 6.9 mph - N/A   Drizzle
10:55 PM 51.8 °F - 48.2 °F 88% 30.09 in 6.2 mi South 6.9 mph - N/A   Drizzle
10:59 PM 51.8 °F - 48.2 °F 88% 30.09 in 6.2 mi South 6.9 mph - N/A   Drizzle
11:03 PM 51.8 °F - 48.2 °F 88% 30.09 in 6.2 mi South 6.9 mph - N/A   Drizzle
11:04 PM 51.8 °F - 48.2 °F 88% 30.09 in 6.2 mi South 6.9 mph - N/A   Drizzle
11:14 PM 51.8 °F - 48.2 °F 88% 30.09 in 6.2 mi South 8.1 mph - N/A   Drizzle
11:25 PM 51.8 °F - 48.2 °F 88% 30.09 in 6.2 mi South 8.1 mph - N/A Rain Light Rain
11:29 PM 51.8 °F - 48.2 °F 88% 30.09 in 6.2 mi South 8.1 mph - N/A   Drizzle
11:42 PM 51.8 °F - 48.2 °F 88% 30.09 in 6.2 mi South 9.2 mph - N/A   Light Drizzle
11:55 PM 51.8 °F - 48.2 °F 88% 30.09 in 6.2 mi South 10.4 mph - N/A   Drizzle